Regional Weather Roundup
Issued by NWS Raleigh/Durham, NC

Home | Current Version | Previous Version | Text Only | Print | Product List | Glossary On
Versions: 1 2 3 4 5 6 7 8 9 10 11 12 13 14 15 16 17 18 19 20 21 22 23 24 25 26 27 28 29 30 31 32 33 34 35 36 37 38 39 40 41 42 43 44 45 46 47 48 49 50
000
ASUS42 KRAH 290510
RWRRAH
NORTH CAROLINA WEATHER ROUNDUP
NATIONAL WEATHER SERVICE RALEIGH NC
100 AM EDT FRI MAY 29 2015

NOTE: "FAIR" INDICATES FEW OR NO CLOUDS BELOW 12,000 FEET WITH NO
SIGNIFICANT WEATHER AND/OR OBSTRUCTIONS TO VISIBILITY.

NCZ001-053-055-056-065-067-290600-
WESTERN NORTH CAROLINA

CITY           SKY/WX    TMP DP  RH WIND       PRES   REMARKS
ASHEVILLE      MOCLDY    66  62  87 CALM      30.28F
JEFFERSON      MOCLDY    62  62 100 CALM      30.31S
MORGANTON      CLOUDY    65  65  98 CALM      30.29R
HICKORY        CLOUDY    67  65  93 CALM      30.24R
RUTHERFORDTON  MOCLDY    65  64  97 N3        30.23F
MOUNT AIRY       N/A     68  64  88 CALM      30.25S
BOONE          MOCLDY    58  58 100 CALM      30.32F FOG
$$

NCZ021-022-025-041-071-084-088-290600-
CENTRAL NORTH CAROLINA

CITY           SKY/WX    TMP DP  RH WIND       PRES   REMARKS
CHARLOTTE      MOCLDY    73  65  75 SE7       30.23S
GREENSBORO     MOCLDY    72  63  73 CALM      30.22S
WINSTON-SALEM  MOCLDY    71  63  75 NW3       30.24S
RALEIGH-DURHAM PTCLDY    70  68  93 CALM      30.22S
FORT BRAGG     PTCLDY    73  64  73 S5        30.21S
FAYETTEVILLE   PTCLDY    71  63  75 S5        30.22S
BURLINGTON     PTCLDY    69  65  86 CALM      30.22R
LAURINBURG     MOCLDY    71  61  70 S5        30.23S
$$

NCZ011-015-027-028-043-044-047-080-103-290600-
NORTHEASTERN NORTH CAROLINA

CITY           SKY/WX    TMP DP  RH WIND       PRES   REMARKS
ROCKY MT-WILSO CLOUDY    72  65  78 S6        30.23R
GREENVILLE     FAIR      70  63  78 S5        30.24S
WASHINGTON     CLEAR     70  62  77 S3        30.24F
ELIZABETH CITY CLEAR     69  63  81 S6        30.23F
MANTEO         CLEAR     72  63  73 S10       30.24S
CAPE HATTERAS  PTCLDY    73  63  70 S6        30.24S
$$

NCZ078-087-090-091-093-098-101-290600-
SOUTHEASTERN NORTH CAROLINA

CITY           SKY/WX    TMP DP  RH WIND       PRES   REMARKS
LUMBERTON      PTCLDY    69  63  81 CALM      30.22S
GOLDSBORO      PTCLDY    70  64  80 CALM      30.21S
KINSTON        MOCLDY    69  63  82 S3        30.24F
KENANSVILLE    MOCLDY    65  62  90 CALM      30.25S
NEW BERN       CLEAR     65  61  87 CALM      30.25F
CHERRY POINT   CLEAR     63  60  90 CALM      30.24F
BEAUFORT       MOCLDY    65  62  90 CALM      30.23F
JACKSONVILLE   CLEAR     65  62  90 S3        30.22F
WILMINGTON     CLEAR     65  62  90 CALM      30.23S
$$




USA.gov is the U.S. government's official web portal to all federal, state and local government web resources and services.